Weather History for KART - January, 2014

Change the Weather History Date:

Friday, January 17, 2014

  Actual Average Record
Temperature  
Mean Temperature 31 °F 19 °F  
Max Temperature 37 °F 29 °F 52 °F (1990)
Min Temperature 25 °F 9 °F -25 °F (1971)
Degree Days  
Heating Degree Days 34 46  
Month to date heating degree days 705 767  
Since 1 July heating degree days 3542 3563  
Cooling Degree Days 0 0  
Month to date cooling degree days 0 0  
Year to date cooling degree days 0 0  
Moisture  
Dew Point 24 °F    
Average Humidity 76    
Maximum Humidity 88    
Minimum Humidity 63    
Precipitation  
Precipitation T in 0.09 in 0.85 in (1997)
Month to date precipitation 2.67 1.53  
Year to date precipitation 2.67 1.53  
Sea Level Pressure  
Sea Level Pressure 29.84 in    
Wind  
Wind Speed 7 mph (South)    
Max Wind Speed 14 mph    
Max Gust Speed 22 mph    
Visibility 8 miles    
Events Snow    
T = Trace of Precipitation, MM = Missing Value Source: NWS Daily Summary

Daily Weather History Graph

Daily Weather History Graph

Search for Another Location

Airport or City:

Trip Planner

Search our weather history database for the weather conditions in past years. The results will help you decide how hot, cold, wet, or windy it might be!

Date:

Astronomy

Jan. 17, 2014 Rise Set
Actual Time 7:34 AM EST 4:54 PM EST
Civil Twilight 7:02 AM EST 5:26 PM EST
Nautical Twilight 6:26 AM EST 6:01 PM EST
Astronomical Twilight 5:52 AM EST 6:36 PM EST
Moon 6:44 PM EST (1/17) 7:56 AM EST (1/17)
Length of Visible Light 10h 23m
Length of Day
9h 20m
Full, 98% of the Moon is Illuminated
Jan 17
Full
Jan 24
Last Quarter
Jan 30
New
Feb 6
First Quarter
Feb 14
Full

Hourly Weather History & Observations

Time (EST) Temp. Windchill Dew Point Humidity Pressure Visibility Wind Dir Wind Speed Gust Speed Precip Events Conditions
12:56 AM 28.9 °F 25.2 °F 19.0 °F 67% 29.87 in 10.0 mi SSE 3.5 mph - N/A   Scattered Clouds
1:56 AM 30.0 °F 24.1 °F 19.0 °F 64% 29.86 in 10.0 mi SSE 5.8 mph - N/A   Partly Cloudy
2:56 AM 30.0 °F 23.2 °F 19.0 °F 64% 29.85 in 10.0 mi SSE 6.9 mph - N/A   Overcast
3:56 AM 30.9 °F 23.5 °F 19.0 °F 61% 29.83 in 10.0 mi South 8.1 mph - N/A   Overcast
4:56 AM 30.9 °F 24.3 °F 19.0 °F 61% 29.82 in 10.0 mi SSE 6.9 mph - N/A   Overcast
5:56 AM 30.9 °F 23.5 °F 19.0 °F 61% 29.82 in 10.0 mi SSE 8.1 mph - N/A   Overcast
6:56 AM 30.9 °F 25.2 °F 19.0 °F 61% 29.82 in 10.0 mi South 5.8 mph - N/A   Overcast
8:35 AM 28.4 °F 22.2 °F 26.6 °F 93% 29.82 in 1.0 mi South 5.8 mph - 0.00 in Snow Light Snow
8:42 AM 28.4 °F 20.4 °F 26.6 °F 93% 29.82 in 0.8 mi South 8.1 mph - 0.00 in Snow Light Snow
8:51 AM 30.2 °F 23.4 °F 26.6 °F 86% 29.82 in 1.0 mi South 6.9 mph - 0.00 in Snow Light Snow
8:56 AM 30.0 °F 24.1 °F 26.1 °F 85% 29.84 in 1.2 mi South 5.8 mph - 0.00 in Snow Light Snow
9:15 AM 30.2 °F 22.6 °F 26.6 °F 86% 29.83 in 2.0 mi South 8.1 mph - 0.00 in Snow Light Snow
9:25 AM 30.2 °F 22.6 °F 26.6 °F 86% 29.83 in 4.0 mi South 8.1 mph - 0.00 in Snow Light Snow
9:56 AM 32.0 °F 23.6 °F 26.1 °F 79% 29.85 in 4.0 mi South 10.4 mph - 0.00 in Snow Light Snow
10:16 AM 32.0 °F 24.2 °F 26.6 °F 80% 29.83 in 2.5 mi South 9.2 mph 19.6 mph 0.00 in Snow Light Snow
10:32 AM 32.0 °F 22.5 °F 26.6 °F 80% 29.83 in 6.0 mi South 12.7 mph 18.4 mph 0.00 in Snow Light Snow
10:56 AM 33.1 °F 23.9 °F 25.0 °F 72% 29.84 in 10.0 mi South 12.7 mph 18.4 mph 0.00 in   Overcast
11:56 AM 34.0 °F 26.0 °F 25.0 °F 70% 29.82 in 10.0 mi South 10.4 mph 21.9 mph N/A   Overcast
12:56 PM 36.0 °F 27.5 °F 24.1 °F 62% 29.81 in 10.0 mi SSW 12.7 mph 18.4 mph N/A   Overcast
1:56 PM 36.0 °F 29.6 °F 25.0 °F 64% 29.81 in 10.0 mi South 8.1 mph - N/A   Overcast
2:56 PM 36.0 °F 31.1 °F 25.0 °F 64% 29.81 in 10.0 mi SSW 5.8 mph - N/A   Overcast
3:56 PM 36.0 °F 29.0 °F 26.1 °F 67% 29.82 in 10.0 mi SW 9.2 mph - N/A   Overcast
4:56 PM 36.0 °F 30.3 °F 26.1 °F 67% 29.84 in 10.0 mi SSW 6.9 mph - N/A   Overcast
5:56 PM 35.1 °F 27.9 °F 26.1 °F 70% 29.86 in 10.0 mi SW 9.2 mph - N/A   Mostly Cloudy
6:56 PM 34.0 °F 27.2 °F 23.0 °F 64% 29.87 in 10.0 mi SW 8.1 mph - N/A   Scattered Clouds
7:56 PM 34.0 °F 31.0 °F 24.1 °F 67% 29.87 in 10.0 mi South 3.5 mph - N/A   Overcast
8:56 PM 34.0 °F - 26.1 °F 73% 29.87 in 10.0 mi Calm Calm - N/A   Overcast
9:56 PM 32.0 °F - 25.0 °F 75% 29.86 in 10.0 mi Calm Calm - N/A   Mostly Cloudy
10:56 PM 30.9 °F 27.5 °F 24.1 °F 76% 29.87 in 10.0 mi SSE 3.5 mph - N/A   Overcast
11:56 PM 32.0 °F - 23.0 °F 69% 29.84 in 10.0 mi Calm Calm - N/A   Mostly Cloudy